Location: Cabrera Baja
(40.4089°N, 4.3354°W)
Time: 01:07:34
(UTC+00:00)

Daily predictions for brighter satellites

Satellite Brightness Start Highest point End
(mag) Time Altitude Azimuth Time Altitude Azimuth Time Altitude Azimuth
RESURS DK-1 4.0 00:00:14 10° NW 00:02:33 29° WNW 00:02:33 29° WNW
Meteor 2-6 Rocket 4.0 00:01:16 10° N 00:06:29 81° WNW 00:06:29 81° WNW
COSMOS 2455 4.0 00:02:18 10° NW 00:07:03 29° WSW 00:07:03 29° WSW
Cosmos 1269 Rocket 4.1 00:07:30 68° WNW 00:07:30 68° WNW 00:12:44 10° NNE
Lacrosse 5 2.1 00:10:40 64° NE 00:10:40 64° NE 00:14:58 10° NE
Cosmos 2263 4.5 00:07:13 10° NNW 00:12:33 56° W 00:12:33 56° W
BREEZE-M DEB (TANK) 4.3 00:03:16 10° WSW 00:17:42 82° NNW 00:22:00 10° ENE
Cosmos 2228 Rocket 4.3 00:15:44 10° NNW 00:19:06 36° WNW 00:19:06 36° WNW
Cosmos 1607 4.2 00:20:04 49° WSW 00:21:26 61° NW 00:27:41 10° NNE
Cosmos 1943 4.4 00:19:53 30° W 00:21:30 36° WNW 00:26:42 10° N
Cosmos 1666 Rocket 4.4 00:23:50 47° NNE 00:23:50 47° NNE 00:27:03 10° NNE
CZ-4C R/B 3.2 00:18:13 10° NW 00:25:33 56° WSW 00:26:33 53° SW
USA 267 3.1 00:32:12 56° SE 00:33:46 90° NE 00:40:21 10° NW
Helios 1B rocket 3.8 00:30:23 10° NNE 00:33:01 34° NE 00:33:01 34° NE
Meteor 1-10 Rocket 4.4 00:29:40 10° NNW 00:34:52 56° W 00:34:52 56° W
Helios 1A 4.2 00:38:50 37° NW 00:38:50 37° NW 00:41:33 10° NNW
Cosmos 1656 Rocket 4.3 00:33:53 10° NW 00:38:16 43° W 00:38:16 43° W
Cosmos 972 Rocket 4.1 00:38:51 10° NNW 00:44:43 76° ENE 00:44:50 76° E
CZ-2D R/B 4.0 00:44:53 10° NE 00:48:36 19° E 00:49:08 18° E
Cosmos 1238 Rocket 3.6 00:50:05 71° ENE 00:50:05 71° ENE 00:54:34 10° NNE
Cosmos 2123 Rocket 4.0 00:47:33 10° NNW 00:53:39 63° W 00:54:01 61° WSW
Meteor 1-27 Rocket 3.9 00:52:43 10° NNW 00:58:15 60° W 00:58:15 60° W
Meteor 1-20 Rocket 4.2 00:58:23 67° ESE 00:58:32 67° E 01:04:09 10° NNE
Cosmos 724 4.1 00:59:22 74° W 00:59:44 78° WNW 01:05:35 10° NNE
Cosmos 2369 Rocket 4.4 01:08:43 10° WNW 01:09:33 11° W 01:09:33 11° W
Cosmos 1605 Rocket 4.1 01:11:59 56° WSW 01:12:48 60° W 01:18:59 10° N
Cosmos 1470 Rocket 4.1 01:16:51 57° NNW 01:16:51 57° NNW 01:20:38 10° N
Cosmos 1992 Rocket 3.9 01:11:37 10° NNW 01:16:38 77° WNW 01:16:38 77° WNW
Cosmos 1153 Rocket 4.3 01:17:14 69° SSW 01:18:02 85° W 01:24:14 10° N
Okean 1-7 4.0 01:15:33 10° N 01:19:43 40° ENE 01:19:46 40° E
Cosmos 1633 Rocket 4.4 01:20:41 31° WNW 01:20:41 31° WNW 01:24:00 10° NNW
ADEOS II 4.2 01:23:40 10° NE 01:26:46 16° E 01:28:37 13° ESE
ISS -0.3 01:27:56 10° NNW 01:29:27 12° N 01:30:59 10° NNE
Resurs 1-4 Rocket 2.6 01:26:33 10° NNE 01:31:41 46° E 01:32:21 44° ESE
Cosmos 2251 Rocket 4.2 01:32:39 41° W 01:33:06 42° WNW 01:38:05 10° N
Cosmos 2061 Rocket 4.3 01:41:57 43° SSE 01:43:52 60° E 01:50:04 10° NNE
Cosmos 2173 Rocket 3.9 01:43:03 57° S 01:44:29 90° E 01:50:50 10° N
SL-8 R/B 4.1 01:46:35 52° WNW 01:47:23 60° NNW 01:52:09 10° NE
Spot 1 4.2 01:48:09 79° SW 01:48:15 80° WSW 01:53:00 10° NNW
Cosmos 2242 Rocket 4.0 01:44:56 10° NNW 01:48:52 53° WNW 01:48:52 53° WNW
Lacrosse 5 4.0 01:49:48 11° WNW 01:53:25 22° NNW 01:57:23 10° NNE
IRAS Rocket 4.1 01:54:13 61° S 01:55:10 80° WSW 02:00:42 10° NNW
Cosmos 2016 Rocket 4.0 01:53:41 48° SSE 01:55:27 74° E 02:01:39 10° N
SL-16 R/B 2.5 01:57:01 40° SSE 01:59:28 84° ENE 02:05:46 10° NNW
Okean 1 4.4 01:56:57 10° NNW 01:59:44 36° NW 01:59:44 36° NW
BREEZE-M DEB (TANK) 3.9 01:58:56 15° NW 02:01:00 47° NNE 02:08:13 10° ESE
Cosmos 1536 4.2 02:02:53 29° ESE 02:03:33 31° E 02:07:08 10° NNE
MOZ.5/SAFIR/RUBIN 5/SL-8 3.7 02:04:31 66° WSW 02:04:38 66° W 02:09:24 10° NNW
Cosmos 1869 Rocket 3.4 02:04:44 75° WNW 02:04:44 75° WNW 02:09:01 10° N
Meteor 1-14 Rocket 4.4 02:05:00 49° WSW 02:05:56 56° WNW 02:11:29 10° N
Meteor 1-11 Rocket 4.3 02:04:11 34° SE 02:06:07 49° E 02:11:25 10° NNE
Meteor 2-4 Rocket 3.8 02:00:26 10° N 02:06:24 81° E 02:08:32 42° SSE
Cosmos 1190 Rocket 3.9 02:06:38 63° SSW 02:07:29 86° WNW 02:12:45 10° NNE
Cosmos 1954 Rocket 4.4 02:08:19 45° SSE 02:09:34 57° ESE 02:14:46 10° NNE
Cosmos 1437 Rocket 2.7 02:09:30 10° N 02:13:22 82° NNW 02:13:22 82° NNW
Cosmos 1703 Rocket 4.3 02:11:28 10° NNW 02:15:14 39° WNW 02:15:14 39° WNW
Cosmos 1697 Rocket 3.2 02:11:34 10° NNW 02:17:07 57° ENE 02:22:17 12° SE
Cosmos 2221 Rocket 4.0 02:13:45 10° N 02:18:07 59° E 02:19:26 40° SE
SeaSat 1 2.4 02:18:39 10° NNE 02:23:36 81° WNW 02:24:48 52° SW
Cosmos 2082 Rocket 2.4 02:22:31 40° S 02:24:29 62° ESE 02:30:08 10° NNE
IKONOS-2 4.4 02:25:02 67° SW 02:25:18 70° WSW 02:29:32 10° NNW
Aureole 1 Rocket 3.2 02:26:02 57° SW 02:26:57 77° WNW 02:32:41 10° NNE
Cosmos 405 Rocket 4.3 02:27:52 22° WNW 02:27:52 22° WNW 02:30:31 10° NNW
CZ-4B R/B 3.3 02:22:46 10° NNE 02:27:49 89° ESE 02:29:10 49° SSW
IRS-1D 3.5 02:22:56 10° NNE 02:27:53 70° ESE 02:29:30 42° S
Cosmos 1833 Rocket 2.7 02:26:35 46° SW 02:28:15 73° WNW 02:33:53 10° NNE
CZ-2D R/B 2.4 02:23:43 10° N 02:28:56 55° WNW 02:30:27 41° WSW
Cosmos 1816 Rocket 4.5 02:24:15 10° N 02:30:40 85° W 02:33:55 31° S
Cosmos 1900 4.3 02:29:33 50° S 02:30:44 73° ESE 02:35:42 10° NE
Cosmos 1500 4.0 02:33:19 36° WNW 02:33:19 36° WNW 02:36:38 10° N
Cosmos 1140 Rocket 3.8 02:32:12 42° WSW 02:33:34 53° WNW 02:38:42 10° N
COSMOS 2406 3.8 02:31:43 33° WSW 02:33:40 45° WNW 02:39:12 10° NNE
Cosmos 1656 3.7 02:31:15 10° NNW 02:36:31 53° WSW 02:37:53 42° SSW
Cosmos 407 Rocket 4.3 02:35:25 32° WSW 02:36:58 39° WNW 02:41:59 10° N
Cosmos 220 Rocket 4.4 02:35:48 10° NNW 02:39:31 41° W 02:39:31 41° W
CBERS-1 3.9 02:35:55 10° NNE 02:41:04 88° WNW 02:43:03 39° SSW
Cosmos 2233 Rocket 3.9 02:39:39 32° S 02:42:45 90° SW 02:49:02 10° N
Cosmos 2360 4.4 02:38:10 10° NNW 02:43:54 72° ENE 02:49:37 10° SSE
Cosmos 1666 2.7 02:48:04 55° WSW 02:48:28 58° W 02:52:11 10° N
Cosmos 1674 Rocket 4.1 02:45:03 10° N 02:49:20 56° E 02:52:19 19° SSE
Cosmos 192 4.4 02:45:32 10° NNW 02:50:27 76° ENE 02:54:50 13° SSE
ATLAS 5 CENTAUR R/B 3.3 02:47:16 10° NW 02:51:29 76° SW 03:07:46 10° SSE
Cosmos 1066 Rocket 4.4 02:50:49 10° N 02:56:43 76° E 03:02:12 12° SSE
Meteor 1-13 Rocket 4.3 02:52:40 10° NNW 02:58:16 58° W 03:01:03 29° SSW
Cosmos 676 Rocket 4.4 02:56:57 32° WSW 02:59:01 50° WNW 03:04:10 10° N
ARIANE 5 R/B 2.8 02:55:06 10° NNE 03:00:11 64° ESE 03:03:30 22° S
IRS-1C 4.1 02:55:46 10° NNE 03:01:08 87° E 03:04:12 26° SSW
Cosmos 1743 3.1 03:02:34 27° SSE 03:04:27 58° E 03:08:14 10° NNE
SL-08 R/B 3.4 03:01:17 13° SSE 03:05:30 79° ENE 03:10:21 10° N
ADEOS II 2.2 03:01:40 10° N 03:06:52 62° WNW 03:09:33 28° SW
ISS -1.3 03:04:17 10° NW 03:07:09 25° NNE 03:09:59 10° E
Cosmos 1741 Rocket 4.1 03:04:18 25° S 03:07:22 70° ESE 03:12:36 10° NNE
Cosmos 1733 Rocket 3.4 03:06:40 34° SW 03:08:02 47° W 03:12:12 10° N
Cosmos 1908 Rocket 4.0 03:05:56 20° S 03:08:53 62° E 03:13:18 10° NNE
Resurs 1-4 Rocket 3.6 03:07:05 10° NNW 03:11:10 23° WNW 03:13:26 17° W
Abrixas rocket 3.6 03:08:37 10° NW 03:11:18 34° NNE 03:13:58 10° E
Spot 4 Rocket 4.5 03:07:14 10° NNE 03:12:20 58° E 03:16:29 15° S
CENTAUR R/B 4.3 03:09:18 10° SSE 03:13:38 22° ESE 03:18:26 10° ENE
Cosmos 1242 Rocket 2.6 03:19:45 10° N 03:23:13 73° E 03:26:24 12° SSE
Aureole 2 4.0 03:24:13 38° SW 03:25:10 67° WNW 03:28:06 10° NNE
ATLAS 5 CENTAUR R/B 2.5 03:21:06 10° NNW 03:26:59 82° NE 03:33:46 10° SE
ATLAS 2A CENTAUR R/B 4.3 03:27:08 17° SSW 03:27:29 17° SSW 03:30:23 10° SSE
Gbstr 26 Del rocket 3.4 03:25:36 10° NW 03:29:59 79° NE 03:35:24 10° ESE
Cosmos 2369 4.3 03:26:56 10° NW 03:32:09 37° WSW 03:36:45 13° SSW
Cosmos 1980 Rocket 2.2 03:27:19 10° NNW 03:32:57 65° WSW 03:38:33 10° S
Cosmos 1378 3.0 03:29:28 10° NNW 03:33:12 71° W 03:36:21 14° S
BREEZE-M TANK 3.5 03:37:03 10° WNW 03:39:57 44° N 03:45:05 10° ENE
Cosmos 1975 Rocket 4.0 03:36:19 10° N 03:40:40 51° E 03:45:01 10° SSE
IDEFIX/ARIANE 42P 2.5 03:37:12 10° NNE 03:42:26 87° WNW 03:47:22 11° SSW
SL-16 R/B 4.2 03:42:07 13° WSW 03:43:46 14° W 03:46:56 10° WNW
H-2A R/B 2.2 03:40:30 10° SSE 03:44:53 80° ENE 03:49:13 10° N
Cosmos 1975 2.7 03:45:48 12° S 03:49:27 82° W 03:53:27 10° N
Cosmos 1464 Rocket 4.1 03:44:06 10° SSW 03:50:26 71° W 03:56:48 10° N
MSX 4.0 03:45:59 10° NNE 03:51:44 79° ESE 03:57:28 10° S
Cosmos 921 Rocket 4.3 03:48:23 10° NW 03:51:45 22° W 03:53:53 16° SW
Cosmos 2278 4.2 03:47:22 10° NW 03:52:35 38° WSW 03:57:47 10° S
Cosmos 1867 3.7 03:47:57 13° SSW 03:52:49 74° ESE 03:58:16 10° NE
Okean 2 Rocket 4.5 03:49:35 10° SSE 03:53:37 38° E 03:57:42 10° NNE
CZ-2C R/B 2.8 03:49:40 10° N 03:53:44 79° WNW 03:57:42 10° SSW
Intercosmos 25 Rocket 4.3 03:51:10 10° N 03:55:19 73° E 04:02:03 10° SSE
SL-16 R/B 3.0 03:49:56 10° NNW 03:55:32 57° ENE 04:01:06 10° SE
OE (NEXTSAT) 4.3 03:53:38 16° WSW 03:56:16 86° NNW 03:59:44 10° ENE
SL-27 R/B 2.4 03:54:20 14° SSW 03:57:18 76° WNW 04:00:47 10° NNE
CZ-4C R/B 2.7 03:56:11 10° S 03:59:25 70° W 04:02:35 10° NNW
Cosmos 1697 Rocket 4.0 03:56:44 10° WNW 04:00:33 19° W 04:03:54 12° SW
Cosmos 1842 3.2 03:56:50 10° N 04:00:48 88° W 04:04:44 10° S
Cosmos 2034 Rocket 4.0 03:55:03 10° S 04:01:12 82° W 04:07:24 10° N
NOSS 3-2 (C) 3.8 03:56:32 10° SSW 04:01:59 59° ESE 04:08:08 10° NE
CZ-2C R/B 3.4 03:57:27 10° NNE 04:02:01 44° E 04:06:25 10° S
Cosmos 1814 Rocket 4.4 03:57:32 10° NNW 04:02:39 67° ENE 04:07:46 10° SSE
ERS-2 2.2 04:03:14 10° S 04:06:48 55° W 04:10:23 10° NNW
Cosmos 2082 Rocket 3.8 04:04:48 10° W 04:09:01 21° NW 04:13:17 10° N
Cosmos 1763 Rocket 3.9 04:07:34 10° NNW 04:12:29 41° WSW 04:17:26 10° S
NOSS 3-2 (A) 3.4 04:08:48 10° SW 04:14:19 71° NW 04:20:42 10° NNE
Okean 2 3.7 04:12:25 10° NNW 04:16:19 45° W 04:20:12 10° SSW
Meteor 1-21 4.3 04:16:08 10° NNW 04:21:56 72° W 04:27:43 10° S
Cosmos 1300 Rocket 3.8 04:18:09 10° S 04:22:32 75° E 04:26:55 10° NNE
Cosmos 1271 Rocket 3.4 04:20:12 10° NNW 04:23:36 33° W 04:26:58 10° SSW
ERBS 2.2 04:20:20 10° SW 04:23:38 81° NW 04:26:56 10° NE
Cosmos 1570 Rocket 4.1 04:21:12 10° NNW 04:26:20 56° WSW 04:31:29 10° S
Cosmos 1025 Rocket 3.8 04:22:56 10° N 04:27:14 58° E 04:31:28 10° SSE
CZ-3B R/B 4.3 04:21:58 10° WSW 04:29:23 21° SSW 04:33:03 10° SSE
CBERS 1 LM4 rocket 4.3 04:26:32 10° NNE 04:31:16 81° WNW 04:36:01 10° SSW
